Torna al catalogo

COSMOS 1691 DEB

AttivoPO
NORAD 43318·DEBRIS·🇷🇺 Russia

Lanciato Oct 9, 1985 da Plesetsk Cosmodrome

Loading…

Prossimi Passaggi (prossime 24 ore)

TLE

In scadenzaSource: Space-Track

Epoca: Sep 4, 2026, 13:42 UTC

1 43318U 85094AC  26247.57114767  .00000247  00000-0  99796-3 0  9990
2 43318  82.5844 346.2558 0014407   2.6245 357.4931 12.82633033554838

Traccia COSMOS 1691 DEB in tempo reale con AllMySat

Download on the App Store